DELTA 1 DEB, 4841

Orbit data source: Space-Track

DELTA 1 DEB, 4841 is space debris originally from a launch on Thu, 04 Jul 1968 UTC launched from the Air Force Western Test Range (AFWTR). Debris objects in space refer to the collection of defunct objects orbiting the Earth. Examples of debris include non-operational satellites, rocket bodies, and fragments generated from explosions, collisions, or faulty payload assembly.

Loading next visibility...
Identifier
4841, 1968-055D
Orbit
Active
Country
Flag of USUS
Related business
Manufacturer
Unknown
Mission
Spacecraft
Bus & Motor
Unknown
Mass
Unknown
Launch date (UTC)
1968-07-04 (57 years ago)
Launch vehicle
Unknown
Launch site
Air Force Western Test Range (AFWTR)
Object type
Payload
Rocket body
Debris
Shape & HBR
Unknown shape, 0.1 m
Radar Cross Section
Small (<0.1 m²)

Expand to show TLE details & history
Last TLE update: 15 hours ago

TLE from 15 hours ago
0 DELTA 1 DEB
1 04841U 68055D   25295.81613447  .00000058  00000-0  14122-3 0  9994
2 04841 120.7438 267.1898 2701087 114.1558 351.5053  9.29210553113378
Epoch: 2025-10-22T19:35Z
TLE epoch observation values (Epoch: 2025-10-22T19:35:14.018Z)
Latitude
58.26138°
Longitude
-165.13042°
Altitude
658.221 km
Speed
8.474 km/s
True Right ascension
10h 40m 38s
True Declination
58° 06' 18"
Sunlit
Object was in daylight at epoch
Visualization orbit readout
Latitude
Unknown
Longitude
Unknown
Altitude
Unknown
Speed
Unknown
Apparent Right ascension
Unknown
Apparent Declination
Unknown
Sunlit
N/A
Visualization observer readout
Local Sidereal Time
05:40:48
Azimuth
Unknown
Elevation
Unknown
Doppler factor
Unknown
Orbital elements
Apogee altitude
5,759.707 km
Perigee altitude
597.098 km
Semi-major axis
9,556.54 km
Eccentricity
0.27011
Inclination
120.7438°
RAAN
267.1898°
Arg. of periapsis
114.1558°
True anomaly
344.72464°
Mean anomaly
351.5053°
Eccentric anomaly
348.39103°
Mean motion
2.32323 °/min
Orbital period
154.96 mins
BSTAR
0.00014122
Loading maneuver chart data...
Computing Atmospheric mass density...
Loading historical data...
Loading historical data...
Loading historical data...
Loading historical data...
Loading historical data...
Loading historical data...
Loading historical data...

Documentation

Showing up to 5 results
|